date time,N1_QBC,N3_HBC,N5_HBC,B24_CLBC,B45_CLBC,N1_HRTC,N2_HRTC,N3_HRTC,N4_HRTC,N5_HRTC,N1_SRTC,N2_SRTC,N3_SRTC,N4_SRTC,N5_SRTC,B24_CL,B24_Q,B45_CL,B45_Q,B12_Q,B23_Q,N4_LRTC,nJac,nFun,res
1995-06-16 10:00:00,200,0,-1.5,2.001,2.001,3.47744,1.65611,0,-0.965452,-1.5,869359,1882900,1000000,258637,17500,2.001,0,2.001,0,200,200,-0.124135,,,
1995-06-16 10:10:00,200,0,-1.5,2,2,3.47743936266,1.65611033699,0,-0.967195200207,-1.5,869359.840666,1882896.82355,1000000,258201.199948,17500,2,0,2,0,200.000265557,199.999976305,-0.72633341953,,,
1995-06-16 10:20:00,200,0,-1.5,2.00099992752,2.00099992752,3.47743888403,1.65611055785,0,-0.968878011492,-1.5,869359.721007,1882896.9373,1000000,257780.497127,17500,2.00099992752,0,2.00099992752,0,200.000199431,200.000009858,-0.701171369008,,,
1995-06-16 10:30:00,200,0,-1.5,2,2,3.47743852359,1.65611069572,0,-0.970502507463,-1.5,869359.630897,1882897.0083,1000000,257374.373134,17500,2,0,2,0,200.000150184,200.000031848,-0.676873321132,,,
1995-06-16 10:40:00,200,0,-1.5,2.00099992752,2.00099992752,3.47743825127,1.65611077482,0,-0.972070306975,-1.5,869359.562818,1882897.04903,1000000,256982.423256,17500,2.00099992752,0,2.00099992752,0,200.000113464,200.000045575,-0.653249796403,,,
1995-06-16 10:50:00,200,0,-1.5,2,2,3.47743804477,1.65611081279,0,-0.973583054948,-1.5,869359.511192,1882897.06859,1000000,256604.236263,17500,2,0,2,0,200.000086044,200.00005345,-0.630311655749,,,
1995-06-16 11:00:00,200,0,-1.5,2.00099992752,2.00099992752,3.47743788749,1.65611082246,0,-0.975042684446,-1.5,869359.471872,1882897.07357,1000000,256239.328889,17500,2.00099992752,0,2.00099992752,0,200.000065534,200.000057231,-0.608178957195,,,
1995-06-16 11:10:00,200,0,-1.5,2,2,3.4774377671,1.6561108131,0,-0.976450569626,-1.5,869359.441776,1882897.06875,1000000,255887.357594,17500,2,0,2,0,200.000050159,200.000058194,-0.586618825058,,,
1995-06-16 11:20:00,200,0,-1.5,2.00099992752,2.00099992752,3.47743767445,1.65611079137,0,-0.977808371892,-1.5,869359.418612,1882897.05755,1000000,255547.907027,17500,2.00099992752,0,2.00099992752,0,200.000038607,200.000057262,-0.565750944142,,,
1995-06-16 11:30:00,200,0,-1.5,2,2,3.47743760268,1.65611076201,0,-0.979117792122,-1.5,869359.40067,1882897.04244,1000000,255220.55197,17500,2,0,2,0,200.000029903,200.000055098,-0.545591762587,,,
1995-06-16 11:40:00,200,0,-1.5,2.00099992752,2.00099992752,3.47743754671,1.65611072839,0,-0.980380034023,-1.5,869359.386677,1882897.02512,1000000,254904.991494,17500,2.00099992752,0,2.00099992752,0,200.000023321,200.000052176,-0.525934125481,,,
1995-06-16 11:50:00,200,0,-1.5,2,2,3.47743750273,1.65611069286,0,-0.98159679744,-1.5,869359.375682,1882897.00682,1000000,254600.80064,17500,2,0,2,0,200.000018326,200.000048829,-0.506984757066,,,
1995-06-16 12:00:00,200,0,-1.5,2.00099992752,2.00099992752,3.47743746788,1.65611065701,0,-0.982769332271,-1.5,869359.36697,1882896.98836,1000000,254307.666932,17500,2.00099992752,0,2.00099992752,0,200.000014518,200.00004529,-0.488556179457,,,
1995-06-16 12:10:00,200,0,-1.5,2,2,3.47743744004,1.65611062192,0,-0.983899091665,-1.5,869359.36001,1882896.97029,1000000,254025.227084,17500,2,0,2,0,200.000011601,200.000041721,-0.470733080943,,,
1995-06-16 12:20:00,200,0,-1.5,2.00099992752,2.00099992752,3.4774374176,1.65611058828,0,-0.984987408219,-1.5,869359.354399,1882896.95296,1000000,253753.147945,17500,2.00099992752,0,2.00099992752,0,200.000009352,200.000038227,-0.453465230807,,,
1995-06-16 12:30:00,200,0,-1.5,2,2,3.47743739934,1.65611055651,0,-0.986035534507,-1.5,869359.349834,1882896.9366,1000000,253491.116373,17500,2,0,2,0,200.000007608,200.000034877,-0.436719286634,,,
1995-06-16 12:40:00,200,0,-1.5,2.00099992752,2.00099992752,3.47743738435,1.65611052683,0,-0.9870448009,-1.5,869359.346086,1882896.92132,1000000,253238.799775,17500,2.00099992752,0,2.00099992752,0,200.000006246,200.000031714,-0.420527663693,,,
1995-06-16 12:50:00,200,0,-1.5,2,2,3.47743737193,1.65611049935,0,-0.988016352388,-1.5,869359.342982,1882896.90717,1000000,252995.911903,17500,2,0,2,0,200.000005174,200.00002876,-0.404813120229,,,
1995-06-16 13:00:00,200,0,-1.5,2.00099992752,2.00099992752,3.47743736155,1.65611047407,0,-0.988951451811,-1.5,869359.340389,1882896.89415,1000000,252762.137047,17500,2.00099992752,0,2.00099992752,0,200.000004323,200.000026024,-0.389624759331,,,
1995-06-16 13:10:00,200,0,-1.5,2,2,3.47743735281,1.65611045093,0,-0.989851205038,-1.5,869359.338203,1882896.88223,1000000,252537.198741,17500,2,0,2,0,200.000003642,200.000023506,-0.374897177981,,,
1995-06-16 13:20:00,200,0,-1.5,2.00099992752,2.00099992752,3.47743734539,1.65611042983,0,-0.990716764466,-1.5,869359.336348,1882896.87136,1000000,252320.808883,17500,2.00099992752,0,2.00099992752,0,200.000003092,200.000021202,-0.360649761794,,,
1995-06-16 13:30:00,200,0,-1.5,2,2,3.47743733905,1.65611041066,0,-0.991549245174,-1.5,869359.334762,1882896.86149,1000000,252112.688706,17500,2,0,2,0,200.000002643,200.000019101,-0.346866961651,,,
1995-06-16 13:40:00,200,0,-1.5,2.00099992752,2.00099992752,3.47743733359,1.65611039328,0,-0.992349663402,-1.5,869359.333397,1882896.85254,1000000,251912.58415,17500,2.00099992752,0,2.00099992752,0,200.000002275,200.000017192,-0.333507594922,,,
1995-06-16 13:50:00,200,0,-1.5,2,2,3.47743732887,1.65611037756,0,-0.993119141727,-1.5,869359.332216,1882896.84444,1000000,251720.214568,17500,2,0,2,0,200.000001969,200.000015462,-0.320615968682,,,
1995-06-16 14:00:00,200,0,-1.5,2.00099992752,2.00099992752,3.47743732475,1.65611036336,0,-0.993858606791,-1.5,869359.331189,1882896.83713,1000000,251535.348302,17500,2.00099992752,0,2.00099992752,0,200.000001713,200.000013897,-0.308110443526,,,
1995-06-16 14:10:00,200,0,-1.5,2,2,3.47743732116,1.65611035056,0,-0.994569085654,-1.5,869359.330291,1882896.83054,1000000,251357.728587,17500,2,0,2,0,200.000001496,200.000012483,-0.296032859298,,,
1995-06-16 14:20:00,200,0,-1.5,2.00099992752,2.00099992752,3.47743731801,1.65611033903,0,-0.995251578385,-1.5,869359.329503,1882896.8246,1000000,251187.105404,17500,2.00099992752,0,2.00099992752,0,200.000001313,200.000011209,-0.284371971373,,,
1995-06-16 14:30:00,200,0,-1.5,2,2,3.47743731524,1.65611032866,0,-0.99590696851,-1.5,869359.32881,1882896.81926,1000000,251023.257873,17500,2,0,2,0,200.000001155,200.000010061,-0.273079218726,,,
1995-06-16 14:40:00,200,0,-1.5,2.00099992752,2.00099992752,3.47743731279,1.65611031933,0,-0.996536196559,-1.5,869359.328198,1882896.81445,1000000,250865.95086,17500,2.00099992752,0,2.00099992752,0,200.00000102,200.000009028,-0.262178353884,,,
1995-06-16 14:50:00,200,0,-1.5,2,2,3.47743731063,1.65611031094,0,-0.997140180267,-1.5,869359.327657,1882896.81014,1000000,250714.954933,17500,2,0,2,0,200.000000902,200.000008099,-0.25165987823,,,
1995-06-16 15:00:00,200,0,-1.5,2.00099992752,2.00099992752,3.47743730871,1.65611030341,0,-0.997719807306,-1.5,869359.327177,1882896.80626,1000000,250570.048173,17500,2.00099992752,0,2.00099992752,0,200.0000008,200.000007264,-0.24151126643,,,
1995-06-16 15:10:00,200,0,-1.5,2,2,3.477437307,1.65611029665,0,-0.998275928262,-1.5,869359.32675,1882896.80277,1000000,250431.017934,17500,2,0,2,0,200.000000711,200.000006514,-0.231717064994,,,
1995-06-16 15:20:00,200,0,-1.5,2.00099992752,2.00099992752,3.47743730548,1.65611029058,0,-0.998809394868,-1.5,869359.326371,1882896.79965,1000000,250297.651283,17500,2.00099992752,0,2.00099992752,0,200.000000632,200.000005841,-0.222277752388,,,
1995-06-16 15:30:00,200,0,-1.5,2,2,3.47743730413,1.65611028514,0,-0.999321053098,-1.5,869359.326033,1882896.79685,1000000,250169.736725,17500,2,0,2,0,200.000000563,200.000005237,-0.213190929284,,,
1995-06-16 15:40:00,200,0,-1.5,2.00099992752,2.00099992752,3.47743730293,1.65611028025,0,-0.999811735192,-1.5,869359.325732,1882896.79433,1000000,250047.066202,17500,2.00099992752,0,2.00099992752,0,200.000000502,200.000004695,-0.204450872469,,,
1995-06-16 15:50:00,200,0,-1.5,2,2,3.47743730185,1.65611027587,0,-1.00028226388,-1.5,869359.325463,1882896.79207,1000000,249929.434031,17500,2,0,2,0,200.000000448,200.000004208,-0.196053618599,,,
1995-06-16 16:00:00,200,0,-1.5,2.00099992752,2.00099992752,3.47743730089,1.65611027194,0,-1.00073345576,-1.5,869359.325223,1882896.79005,1000000,249816.636061,17500,2.00099992752,0,2.00099992752,0,200.0000004,200.000003772,-0.187996616885,,,
1995-06-16 16:10:00,200,0,-1.5,2,2,3.47743730003,1.65611026842,0,-1.00116610555,-1.5,869359.325008,1882896.78824,1000000,249708.473612,17500,2,0,2,0,200.000000357,200.000003381,-0.180270747812,,,
1995-06-16 16:20:00,200,0,-1.5,2.00099992752,2.00099992752,3.47743729927,1.65611026526,0,-1.00159875535,-1.5,869359.324817,1882896.78661,1000000,249600.311163,17500,2.00099992752,0,2.00099992752,0,200.00000032,200.00000303,-0.180270747812,,,
1995-06-16 16:30:00,200,0,-1.5,2,2,3.47743729858,1.65611026243,0,-1.00203140514,-1.5,869359.324645,1882896.78515,1000000,249492.148715,17500,2,0,2,0,200.000000286,200.000002716,-0.180270747812,,,
1995-06-16 16:40:00,200,0,-1.5,2.00099992752,2.00099992752,3.47743729797,1.65611025989,0,-1.00246405494,-1.5,869359.324492,1882896.78384,1000000,249383.986266,17500,2.00099992752,0,2.00099992752,0,200.000000256,200.000002434,-0.180270747812,,,
1995-06-16 16:50:00,200,0,-1.5,2,2,3.47743729742,1.65611025762,0,-1.00289670473,-1.5,869359.324355,1882896.78267,1000000,249275.823817,17500,2,0,2,0,200.000000229,200.000002181,-0.180270747812,,,
1995-06-16 17:00:00,200,0,-1.5,2.00099992752,2.00099992752,3.47743729693,1.65611025558,0,-1.00332935453,-1.5,869359.324232,1882896.78162,1000000,249167.661369,17500,2.00099992752,0,2.00099992752,0,200.000000205,200.000001955,-0.180270747812,,,
1995-06-16 17:10:00,200,0,-1.5,2,2,3.47743729649,1.65611025375,0,-1.00376200432,-1.5,869359.324122,1882896.78068,1000000,249059.49892,17500,2,0,2,0,200.000000183,200.000001752,-0.180270747812,,,
1995-06-16 17:20:00,200,0,-1.5,2.00099992752,2.00099992752,3.47743729609,1.65611025211,0,-1.00419465412,-1.5,869359.324023,1882896.77984,1000000,248951.336471,17500,2.00099992752,0,2.00099992752,0,200.000000164,200.00000157,-0.180270747812,,,
1995-06-16 17:30:00,200,0,-1.5,2,2,3.47743729574,1.65611025065,0,-1.00462730391,-1.5,869359.323935,1882896.77908,1000000,248843.174022,17500,2,0,2,0,200.000000147,200.000001407,-0.180270747812,,,
1995-06-16 17:40:00,200,0,-1.5,2.00099992752,2.00099992752,3.47743729542,1.65611024933,0,-1.0050599537,-1.5,869359.323856,1882896.77841,1000000,248735.011574,17500,2.00099992752,0,2.00099992752,0,200.000000132,200.000001261,-0.180270747812,,,
1995-06-16 17:50:00,200,0,-1.5,2,2,3.47743729514,1.65611024815,0,-1.0054926035,-1.5,869359.323785,1882896.7778,1000000,248626.849125,17500,2,0,2,0,200.000000118,200.00000113,-0.180270747812,,,
1995-06-16 18:00:00,200,0,-1.5,2.00099992752,2.00099992752,3.47743729489,1.6561102471,0,-1.00592525329,-1.5,869359.323722,1882896.77725,1000000,248518.686676,17500,2.00099992752,0,2.00099992752,0,200.000000106,200.000001012,-0.180270747812,,,
1995-06-16 18:10:00,200,0,-1.5,2,2,3.47743729466,1.65611024615,0,-1.00635790309,-1.5,869359.323665,1882896.77677,1000000,248410.524228,17500,2,0,2,0,200.000000095,200.000000907,-0.180270747812,,,
1995-06-16 18:20:00,200,0,-1.5,2.00099992752,2.00099992752,3.47743729446,1.6561102453,0,-1.00679055288,-1.5,869359.323614,1882896.77633,1000000,248302.361779,17500,2.00099992752,0,2.00099992752,0,200.000000085,200.000000813,-0.180270747812,,,
1995-06-16 18:30:00,200,0,-1.5,2,2,3.47743729428,1.65611024454,0,-1.00722320268,-1.5,869359.323569,1882896.77594,1000000,248194.19933,17500,2,0,2,0,200.000000076,200.000000728,-0.180270747812,,,
1995-06-16 18:40:00,200,0,-1.5,2.00099992752,2.00099992752,3.47743729411,1.65611024386,0,-1.00765585247,-1.5,869359.323528,1882896.77559,1000000,248086.036882,17500,2.00099992752,0,2.00099992752,0,200.000000068,200.000000653,-0.180270747812,,,
1995-06-16 18:50:00,200,0,-1.5,2,2,3.47743729397,1.65611024325,0,-1.00808850227,-1.5,869359.323491,1882896.77527,1000000,247977.874433,17500,2,0,2,0,200.000000061,200.000000585,-0.180270747812,,,
1995-06-16 19:00:00,200,0,-1.5,2.00099992752,2.00099992752,3.47743729383,1.6561102427,0,-1.00852115206,-1.5,869359.323459,1882896.77499,1000000,247869.711984,17500,2.00099992752,0,2.00099992752,0,200.000000055,200.000000524,-0.180270747812,,,
1995-06-16 19:10:00,200,0,-1.5,2,2,3.47743729372,1.65611024221,0,-1.00895380186,-1.5,869359.323429,1882896.77474,1000000,247761.549536,17500,2,0,2,0,200.000000049,200.00000047,-0.180270747812,,,
1995-06-16 19:20:00,200,0,-1.5,2.00099992752,2.00099992752,3.47743729361,1.65611024177,0,-1.00938645165,-1.5,869359.323403,1882896.77451,1000000,247653.387087,17500,2.00099992752,0,2.00099992752,0,200.000000044,200.000000421,-0.180270747812,,,
1995-06-16 19:30:00,200,0,-1.5,2,2,3.47743729352,1.65611024138,0,-1.00981910145,-1.5,869359.323379,1882896.77431,1000000,247545.224638,17500,2,0,2,0,200.000000039,200.000000377,-0.180270747812,,,
1995-06-16 19:40:00,200,0,-1.5,2.00099992752,2.00099992752,3.47743729343,1.65611024103,0,-1.01025175124,-1.5,869359.323358,1882896.77413,1000000,247437.06219,17500,2.00099992752,0,2.00099992752,0,200.000000035,200.000000338,-0.180270747812,,,
1995-06-16 19:50:00,200,0,-1.5,2,2,3.47743729336,1.65611024071,0,-1.01068440104,-1.5,869359.323339,1882896.77397,1000000,247328.899741,17500,2,0,2,0,200.000000032,200.000000303,-0.180270747812,,,
1995-06-16 20:00:00,200,0,-1.5,2.00099992752,2.00099992752,3.47743729329,1.65611024043,0,-1.01111705083,-1.5,869359.323322,1882896.77382,1000000,247220.737292,17500,2.00099992752,0,2.00099992752,0,200.000000028,200.000000271,-0.180270747812,,,
1995-06-16 20:10:00,200,0,-1.5,2,2,3.47743729323,1.65611024017,0,-1.01154970063,-1.5,869359.323307,1882896.77369,1000000,247112.574843,17500,2,0,2,0,200.000000025,200.000000243,-0.180270747812,,,
1995-06-16 20:20:00,200,0,-1.5,2.00099992752,2.00099992752,3.47743729317,1.65611023995,0,-1.01198235042,-1.5,869359.323294,1882896.77357,1000000,247004.412395,17500,2.00099992752,0,2.00099992752,0,200.000000023,200.000000218,-0.180270747812,,,
1995-06-16 20:30:00,200,0,-1.5,2,2,3.47743729313,1.65611023974,0,-1.01241500022,-1.5,869359.323281,1882896.77347,1000000,246896.249946,17500,2,0,2,0,200.00000002,200.000000195,-0.180270747812,,,
1995-06-16 20:40:00,200,0,-1.5,2.00099992752,2.00099992752,3.47743729308,1.65611023956,0,-1.01284765001,-1.5,869359.32327,1882896.77337,1000000,246788.087497,17500,2.00099992752,0,2.00099992752,0,200.000000018,200.000000175,-0.180270747812,,,
1995-06-16 20:50:00,200,0,-1.5,2,2,3.47743729304,1.6561102394,0,-1.01328029981,-1.5,869359.323261,1882896.77329,1000000,246679.925049,17500,2,0,2,0,200.000000016,200.000000157,-0.180270747812,,,
1995-06-16 21:00:00,200,0,-1.5,2.00099992752,2.00099992752,3.47743729301,1.65611023925,0,-1.0137129496,-1.5,869359.323252,1882896.77321,1000000,246571.7626,17500,2.00099992752,0,2.00099992752,0,200.000000015,200.00000014,-0.180270747812,,,
1995-06-16 21:10:00,200,0,-1.5,2,2,3.47743729298,1.65611023912,0,-1.01414559939,-1.5,869359.323244,1882896.77315,1000000,246463.600151,17500,2,0,2,0,200.000000013,200.000000126,-0.180270747812,,,
1995-06-16 21:20:00,200,0,-1.5,2.00099992752,2.00099992752,3.47743729295,1.656110239,0,-1.01457824919,-1.5,869359.323237,1882896.77309,1000000,246355.437703,17500,2.00099992752,0,2.00099992752,0,200.000000012,200.000000113,-0.180270747812,,,
1995-06-16 21:30:00,200,0,-1.5,2,2,3.47743729292,1.65611023889,0,-1.01501089898,-1.5,869359.323231,1882896.77303,1000000,246247.275254,17500,2,0,2,0,200.000000011,200.000000101,-0.180270747812,,,
1995-06-16 21:40:00,200,0,-1.5,2.00099992752,2.00099992752,3.4774372929,1.6561102388,0,-1.01544354878,-1.5,869359.323225,1882896.77298,1000000,246139.112805,17500,2.00099992752,0,2.00099992752,0,200.000000009,200.000000091,-0.180270747812,,,
1995-06-16 21:50:00,200,0,-1.5,2,2,3.47743729288,1.65611023872,0,-1.01587619857,-1.5,869359.32322,1882896.77294,1000000,246030.950357,17500,2,0,2,0,200.000000008,200.000000081,-0.180270747812,,,
1995-06-16 22:00:00,200,0,-1.5,2.00099992752,2.00099992752,3.47743729286,1.65611023864,0,-1.01630884837,-1.5,869359.323215,1882896.7729,1000000,245922.787908,17500,2.00099992752,0,2.00099992752,0,200.000000008,200.000000073,-0.180270747812,,,
